This is the latest recevied weather packets stored in our database for station/object IK1AMC-3. If no packets are shown the sender has not sent any weather packets the latest 10 day(s).
| Time | Temp. | Humidity | Pressure | Rain* | Wind** | Luminosity | Snow |
|---|---|---|---|---|---|---|---|
| 1777517783 | 17.78° C | 60% | 1016.7 hPa | - | - | - | - |
| 1777516582 | 18.33° C | 59% | 1016.6 hPa | - | - | - | - |
| 1777515381 | 18.33° C | 59% | 1016.3 hPa | - | - | - | - |
| 1777514179 | 18.33° C | 59% | 1016.2 hPa | - | - | - | - |
| 1777512978 | 18.89° C | 58% | 1015.8 hPa | - | - | - | - |
| 1777511776 | 18.89° C | 57% | 1015.6 hPa | - | - | - | - |
| 1777510575 | 18.89° C | 57% | 1015.7 hPa | - | - | - | - |
| 1777509374 | 18.89° C | 57% | 1015.8 hPa | - | - | - | - |
| 1777508173 | 18.89° C | 57% | 1015.8 hPa | - | - | - | - |
| 1777506971 | 18.89° C | 57% | 1015.7 hPa | - | - | - | - |
| 1777505770 | 18.89° C | 57% | 1015.6 hPa | - | - | - | - |
| 1777504569 | 18.33° C | 57% | 1015.7 hPa | - | - | - | - |
| 1777503368 | 18.33° C | 58% | 1015.7 hPa | - | - | - | - |
| 1777502166 | 17.78° C | 61% | 1015.7 hPa | - | - | - | - |
| 1777500965 | 17.78° C | 60% | 1015.6 hPa | - | - | - | - |
| 1777499763 | 17.78° C | 59% | 1015.5 hPa | - | - | - | - |
| 1777498562 | 18.33° C | 56% | 1015.3 hPa | - | - | - | - |
| 1777497361 | 17.78° C | 56% | 1015.1 hPa | - | - | - | - |
| 1777496160 | 17.78° C | 55% | 1014.9 hPa | - | - | - | - |
| 1777494958 | 18.33° C | 54% | 1014.7 hPa | - | - | - | - |
| 1777493757 | 17.78° C | 55% | 1014.6 hPa | - | - | - | - |
| 1777492555 | 18.33° C | 53% | 1014.5 hPa | - | - | - | - |
| 1777491354 | 18.89° C | 53% | 1014.4 hPa | - | - | - | - |
| 1777490153 | 18.89° C | 51% | 1014.3 hPa | - | - | - | - |
| 1777488951 | 18.89° C | 53% | 1014.2 hPa | - | - | - | - |
* Rain since midnight (hover to see other rain measurements)
** Current wind speed in m/s (hover to see current wind gust speed)